Norfolk, NE

9:00 PM CST on January 23, 2018 (GMT -0600)
Stefan Memorial

Weather History for KOFK - February, 2015

Change the Weather History Date:

Sunday, February 22, 2015

  Actual Average Record
Temperature  
Mean Temperature 6 °F 29 °F  
Max Temperature 15 °F 39 °F 72 °F (1995)
Min Temperature -3 °F 19 °F -14 °F (1962)
Degree Days  
Heating Degree Days 59 36  
Month to date heating degree days 924 860  
Since 1 July heating degree days 4755 4882  
Cooling Degree Days 0 0  
Month to date cooling degree days 0 0  
Year to date cooling degree days 0 0  
Moisture  
Dew Point -6 °F    
Average Humidity 50    
Maximum Humidity 66    
Minimum Humidity 33    
Precipitation  
Precipitation 0.00 in 0.03 in 1.05 in (1909)
Month to date precipitation 0.27 0.57  
Year to date precipitation 0.84 1.16  
Snow  
Snow 0.00 in 0.20 in - ()
Month to date snowfall 3.9 4.5  
Since 1 July snowfall 20.2 21.8  
Snow Depth 0.00 in    
Sea Level Pressure  
Sea Level Pressure 30.73 in    
Wind  
Wind Speed 14 mph (NNW)    
Max Wind Speed 25 mph    
Max Gust Speed 31 mph    
Visibility 10 miles    
Events      
T = Trace of Precipitation, MM = Missing Value Source: NWS Daily Summary

Daily Weather History Graph

Daily Weather History Graph

Search for Another Location

Airport or City:

Trip Planner

Search our weather history database for the weather conditions in past years. The results will help you decide how hot, cold, wet, or windy it might be!

Date:

Astronomy

Feb. 22, 2015 Rise Set
Actual Time 7:15 AM CST 6:11 PM CST
Civil Twilight 6:47 AM CST 6:39 PM CST
Nautical Twilight 6:15 AM CST 7:11 PM CST
Astronomical Twilight 5:42 AM CST 7:44 PM CST
Moon 9:23 AM CST (2/22) 11:00 PM CST (2/22)
Length of Visible Light 11h 51m
Length of Day
10h 55m
Waxing Crescent, 19% of the Moon is Illuminated
Feb 22
Waxing Crescent
Feb 25
First Quarter
Mar 5
Full
Mar 13
Last Quarter
Mar 20
New

Hourly Weather History & Observations

Time (CST) Temp. Windchill Dew Point Humidity Pressure Visibility Wind Dir Wind Speed Gust Speed Precip Events Conditions
12:56 AM 14.0 °F -1.4 °F 3.0 °F 62% 30.52 in 10.0 mi North 15.0 mph - N/A   Overcast
1:56 AM 12.9 °F -3.9 °F 1.0 °F 59% 30.56 in 10.0 mi North 17.3 mph - N/A   Overcast
2:56 AM 12.0 °F -5.1 °F -0.0 °F 59% 30.58 in 10.0 mi North 17.3 mph - N/A   Mostly Cloudy
3:56 AM 10.9 °F -2.6 °F 1.0 °F 64% 30.59 in 10.0 mi North 10.4 mph - N/A   Mostly Cloudy
4:56 AM 10.0 °F -5.9 °F -0.0 °F 64% 30.63 in 10.0 mi North 13.8 mph - N/A   Partly Cloudy
5:56 AM 9.0 °F -8.5 °F -2.0 °F 61% 30.64 in 10.0 mi NNW 16.1 mph - N/A   Clear
6:56 AM 7.0 °F -10.4 °F -5.1 °F 58% 30.67 in 10.0 mi North 15.0 mph - N/A   Clear
7:56 AM 6.1 °F -10.9 °F -5.1 °F 60% 30.71 in 10.0 mi NNW 13.8 mph - N/A   Clear
8:56 AM 7.0 °F -9.8 °F -4.0 °F 61% 30.74 in 10.0 mi NNW 13.8 mph - N/A   Clear
9:56 AM 10.0 °F -10.0 °F -2.9 °F 56% 30.74 in 10.0 mi North 23.0 mph 28.8 mph N/A   Clear
10:56 AM 10.9 °F -8.3 °F -6.0 °F 47% 30.77 in 10.0 mi North 21.9 mph 28.8 mph N/A   Clear
11:56 AM 12.0 °F -6.5 °F -7.1 °F 42% 30.76 in 10.0 mi North 20.7 mph 27.6 mph N/A   Clear
12:56 PM 12.9 °F -5.3 °F -9.0 °F 37% 30.75 in 10.0 mi North 20.7 mph 27.6 mph N/A   Clear
1:56 PM 14.0 °F -3.0 °F -9.0 °F 35% 30.72 in 10.0 mi NNW 18.4 mph 26.5 mph N/A   Clear
2:56 PM 15.1 °F -2.0 °F -9.0 °F 34% 30.73 in 10.0 mi North 19.6 mph 25.3 mph N/A   Clear
3:56 PM 14.0 °F -2.5 °F -9.0 °F 35% 30.73 in 10.0 mi North 17.3 mph - N/A   Clear
4:56 PM 12.0 °F -5.6 °F -9.0 °F 39% 30.74 in 10.0 mi North 18.4 mph - N/A   Clear
5:56 PM 8.1 °F -7.0 °F -9.0 °F 46% 30.78 in 10.0 mi North 11.5 mph - N/A   Clear
6:56 PM 6.1 °F -10.2 °F -9.0 °F 50% 30.82 in 10.0 mi North 12.7 mph - N/A   Clear
7:56 PM 5.0 °F -9.1 °F -8.0 °F 55% 30.84 in 10.0 mi North 9.2 mph - N/A   Clear
8:56 PM 3.0 °F -9.3 °F -8.0 °F 60% 30.84 in 10.0 mi North 6.9 mph - N/A   Clear
9:56 PM 1.0 °F -8.7 °F -9.0 °F 63% 30.86 in 10.0 mi NNW 4.6 mph - N/A   Clear
10:56 PM -0.9 °F -8.9 °F -9.0 °F 69% 30.88 in 10.0 mi NW 3.5 mph - N/A   Clear
11:56 PM -2.0 °F -10.1 °F -9.0 °F 72% 30.88 in 10.0 mi SW 3.5 mph - N/A   Clear